Weather History for PAYA - August, 2013

Change the Weather History Date:

Saturday, August 31, 2013

  Actual Average Record
Temperature  
Mean Temperature 57 °F 51 °F  
Max Temperature 59 °F 59 °F 75 °F (1963)
Min Temperature 54 °F 44 °F 34 °F (1969)
Degree Days  
Heating Degree Days 8 14  
Month to date heating degree days 267 346  
Since 1 June heating degree days 906 1104  
Since 1 July heating degree days 564 678  
Cooling Degree Days 0    
Month to date cooling degree days 0  
Year to date cooling degree days 0  
Since 1 June cooling degree days 0  
Growing Degree Days 6 (Base 50)    
Moisture  
Dew Point 56 °F    
Average Humidity 0    
Maximum Humidity 0    
Minimum Humidity 0    
Precipitation  
Precipitation 1.15 in 0.54 in 4.13 in (1952)
Month to date precipitation 9.55 14.07  
Year to date precipitation 77.63 81.30  
Snow  
Snow 0.00 in 0.00 in 0.00 in (2014)
Month to date snowfall T 0.0  
Since 1 June snowfall 0.0 0.0  
Since 1 July snowfall T 0.0  
Snow Depth 0.00 in    
Sea Level Pressure  
Sea Level Pressure 29.93 in    
Wind  
Wind Speed 2 mph (ESE)    
Max Wind Speed 5 mph    
Max Gust Speed 7 mph    
Visibility 4 miles    
Events Rain    
T = Trace of Precipitation, MM = Missing Value Source: NWS Daily Summary

Daily Weather History Graph

Daily Weather History Graph

Search for Another Location

Airport or City:

Trip Planner

Search our weather history database for the weather conditions in past years. The results will help you decide how hot, cold, wet, or windy it might be!

Date:

Astronomy

Aug. 31, 2013 Rise Set
Actual Time 6:13 AM AKDT 8:22 PM AKDT
Civil Twilight 5:29 AM AKDT 9:06 PM AKDT
Nautical Twilight 4:31 AM AKDT 10:03 PM AKDT
Astronomical Twilight 3:17 AM AKDT 11:15 PM AKDT
Moon 1:05 AM AKDT (8/31) 6:04 PM AKDT (8/31)
Length of Visible Light 15h 37m
Length of Day
14h 08m
Waning Crescent, 20% of the Moon is Illuminated
Aug 31
Waning Crescent
Sep 5
New
Sep 12
First Quarter
Sep 19
Full
Sep 26
Last Quarter

Hourly Weather History & Observations

Time (AKDT) Temp. Dew Point Humidity Pressure Visibility Wind Dir Wind Speed Gust Speed Precip Events Conditions
12:35 AM 57.2 °F 55.4 °F 94% 30.00 in 10.0 mi ESE 3.5 mph - N/A   Overcast
12:53 AM 57.9 °F 55.9 °F 93% 30.00 in 10.0 mi Calm Calm - N/A   Overcast
1:13 AM 57.2 °F 55.4 °F 94% 30.00 in 10.0 mi Calm Calm - N/A   Overcast
1:53 AM 57.0 °F 54.0 °F 89% 30.00 in 10.0 mi East 3.5 mph - N/A   Overcast
2:53 AM 55.9 °F 55.0 °F 97% 30.00 in 10.0 mi Calm Calm - 0.00 in   Overcast
3:07 AM 55.4 °F 55.4 °F 100% 30.00 in 6.0 mi ESE 3.5 mph - N/A   Overcast
3:15 AM 57.2 °F 57.2 °F 100% 30.00 in 1.8 mi Calm Calm - N/A   Overcast
3:37 AM 55.4 °F 55.4 °F 100% 30.00 in 1.0 mi NE 3.5 mph - N/A   Mist
3:46 AM 55.4 °F 55.4 °F 100% 29.99 in 2.0 mi ENE 4.6 mph - N/A   Overcast
3:53 AM 55.0 °F 55.0 °F 100% 29.99 in 5.0 mi Calm Calm - N/A   Overcast
4:04 AM 53.6 °F 53.6 °F 100% 29.99 in 1.8 mi Calm Calm - N/A   Overcast
4:14 AM 53.6 °F 53.6 °F 100% 29.99 in 2.0 mi Calm Calm - N/A   Overcast
4:27 AM 53.6 °F 53.6 °F 100% 29.99 in 7.0 mi East 3.5 mph - N/A   Overcast
4:51 AM 55.4 °F 53.6 °F 94% 29.99 in 10.0 mi Calm Calm - N/A   Overcast
4:53 AM 55.0 °F 54.0 °F 96% 29.99 in 10.0 mi Calm Calm - N/A   Overcast
5:53 AM 55.0 °F 54.0 °F 96% 29.99 in 10.0 mi Calm Calm - N/A   Overcast
6:53 AM 55.0 °F 53.1 °F 93% 29.99 in 10.0 mi Calm Calm - N/A   Overcast
7:28 AM 53.6 °F 53.6 °F 100% 29.98 in 1.5 mi Calm Calm - N/A   Overcast
7:42 AM 53.6 °F 53.6 °F 100% 29.98 in 2.5 mi Calm Calm - N/A   Overcast
7:50 AM 53.6 °F 53.6 °F 100% 29.98 in 4.0 mi Calm Calm - N/A   Overcast
7:53 AM 54.0 °F 54.0 °F 100% 29.98 in 5.0 mi Calm Calm - N/A   Overcast
8:24 AM 55.4 °F 55.4 °F 100% 29.98 in 2.0 mi ESE 3.5 mph - N/A   Overcast
8:53 AM 55.0 °F 55.0 °F 100% 29.97 in 4.0 mi Calm Calm - 0.00 in   Overcast
9:13 AM 57.2 °F 55.4 °F 94% 29.97 in 10.0 mi Calm Calm - N/A   Overcast
9:53 AM 57.9 °F 55.0 °F 90% 29.97 in 10.0 mi East 3.5 mph - N/A   Overcast
10:35 AM 57.2 °F 57.2 °F 100% 29.96 in 2.0 mi East 4.6 mph - N/A   Overcast
10:53 AM 57.9 °F 57.0 °F 97% 29.96 in 2.0 mi East 4.6 mph - N/A   Overcast
11:23 AM 57.2 °F 57.2 °F 100% 29.95 in 4.0 mi ESE 3.5 mph - N/A   Overcast
11:42 AM 57.2 °F 57.2 °F 100% 29.95 in 2.5 mi East 3.5 mph - N/A   Overcast
11:53 AM 57.9 °F 57.0 °F 97% 29.95 in 1.5 mi East 3.5 mph - N/A   Overcast
12:17 PM 57.2 °F 57.2 °F 100% 29.94 in 1.8 mi Calm Calm - 0.01 in Rain Light Rain
12:53 PM 59.0 °F 57.9 °F 96% 29.95 in 1.5 mi East 3.5 mph - 0.04 in   Light Drizzle
1:15 PM 59.0 °F 57.2 °F 94% 29.95 in 2.0 mi SE 3.5 mph - 0.04 in   Light Drizzle
1:25 PM 59.0 °F 57.2 °F 94% 29.94 in 1.2 mi Calm Calm - 0.07 in   Light Drizzle
1:42 PM 57.2 °F 57.2 °F 100% 29.94 in 1.8 mi Calm Calm - 0.19 in Rain Rain
1:53 PM 57.9 °F 57.9 °F 100% 29.95 in 1.5 mi Calm Calm - 0.22 in Rain Rain
2:03 PM 57.2 °F 57.2 °F 100% 29.94 in 1.2 mi Calm Calm - 0.02 in Rain Light Rain
2:13 PM 59.0 °F 57.2 °F 94% 29.94 in 1.5 mi Calm Calm - 0.04 in Rain Light Rain
2:35 PM 59.0 °F 57.2 °F 94% 29.93 in 2.5 mi Calm Calm - 0.07 in Rain Light Rain
2:53 PM 59.0 °F 57.9 °F 96% 29.93 in 1.8 mi Calm Calm - 0.10 in Rain Light Rain
3:03 PM 59.0 °F 59.0 °F 100% 29.93 in 2.0 mi Calm Calm - 0.01 in Rain Light Rain
3:07 PM 59.0 °F 57.2 °F 94% 29.93 in 1.8 mi South 3.5 mph - 0.01 in Rain Light Rain
3:31 PM 59.0 °F 57.2 °F 94% 29.92 in 3.0 mi Calm Calm - 0.07 in Rain Rain
3:42 PM 59.0 °F 57.2 °F 94% 29.92 in 2.5 mi Variable 3.5 mph - 0.10 in Rain Rain
3:53 PM 57.0 °F 57.0 °F 100% 29.92 in 2.5 mi Calm Calm - 0.15 in Rain Rain
3:56 PM 57.2 °F 57.2 °F 100% 29.92 in 3.0 mi Calm Calm - 0.01 in Rain Rain
4:53 PM 57.0 °F 57.0 °F 100% 29.91 in 7.0 mi ENE 3.5 mph - 0.12 in Rain Light Rain
5:53 PM 57.0 °F 55.9 °F 96% 29.89 in 6.0 mi East 3.5 mph - 0.05 in Rain Light Rain
6:36 PM 57.2 °F 57.2 °F 100% 29.88 in 1.8 mi Calm Calm - 0.03 in Rain Rain
6:49 PM 55.4 °F 55.4 °F 100% 29.87 in 1.2 mi NNW 3.5 mph - 0.08 in Rain Heavy Rain
6:53 PM 55.9 °F 55.9 °F 100% 29.88 in 1.0 mi North 3.5 mph - 0.10 in Rain Heavy Rain
7:05 PM 57.2 °F 57.2 °F 100% 29.87 in 1.5 mi NE 3.5 mph - 0.08 in Rain Rain
7:16 PM 57.2 °F 57.2 °F 100% 29.87 in 2.0 mi ENE 3.5 mph - 0.10 in Rain Light Rain
7:24 PM 57.2 °F 57.2 °F 100% 29.87 in 1.8 mi East 3.5 mph - 0.11 in Rain Light Rain
7:28 PM 57.2 °F 55.4 °F 94% 29.87 in 1.2 mi Calm Calm - 0.12 in Rain Rain
7:46 PM 57.2 °F 57.2 °F 100% 29.86 in 1.2 mi Calm Calm - 0.19 in Rain Light Rain
7:53 PM 57.0 °F 57.0 °F 100% 29.86 in 1.2 mi Calm Calm - 0.20 in Rain Light Rain
8:05 PM 57.2 °F 55.4 °F 94% 29.86 in 1.5 mi Calm Calm - 0.01 in Rain Light Rain
8:14 PM 57.2 °F 55.4 °F 94% 29.86 in 1.2 mi Calm Calm - 0.02 in Rain Light Rain
8:18 PM 57.2 °F 55.4 °F 94% 29.86 in 1.5 mi Calm Calm - 0.02 in Rain Light Rain
8:27 PM 57.2 °F 57.2 °F 100% 29.86 in 2.5 mi Calm Calm - 0.03 in Rain Light Rain
8:38 PM 57.2 °F 57.2 °F 100% 29.86 in 4.0 mi Calm Calm - 0.04 in Rain Light Rain
8:53 PM 57.0 °F 57.0 °F 100% 29.86 in 5.0 mi Calm Calm - 0.05 in Rain Light Rain
9:10 PM 57.2 °F 57.2 °F 100% 29.85 in 2.5 mi South 3.5 mph - 0.01 in Rain Light Rain
9:24 PM 57.2 °F 57.2 °F 100% 29.86 in 3.0 mi SSW 3.5 mph - 0.01 in Rain Light Rain
9:36 PM 57.2 °F 57.2 °F 100% 29.85 in 2.0 mi Calm Calm - 0.02 in Rain Light Rain
9:53 PM 57.0 °F 57.0 °F 100% 29.86 in 2.0 mi Variable 4.6 mph - 0.04 in Rain Light Rain
10:15 PM 57.2 °F 57.2 °F 100% 29.85 in 2.5 mi South 5.8 mph - 0.01 in Rain Light Rain
10:25 PM 57.2 °F 57.2 °F 100% 29.85 in 1.2 mi SSW 5.8 mph - 0.01 in Rain Light Rain
10:41 PM 57.2 °F 57.2 °F 100% 29.84 in 2.0 mi SSW 4.6 mph - 0.02 in Rain Light Rain
10:53 PM 57.0 °F 57.0 °F 100% 29.85 in 2.0 mi South 3.5 mph - 0.02 in Rain Light Rain
10:59 PM 57.2 °F 57.2 °F 100% 29.84 in 1.2 mi South 3.5 mph - 0.01 in Rain Light Rain
11:10 PM 57.2 °F 57.2 °F 100% 29.84 in 0.8 mi SSW 3.5 mph - 0.01 in Rain Light Rain